STARLINK-36796

Last updated on Sat Mar 14 2026 00:02:06 GMT+0000 (Coordinated Universal Time)

1 67722U 26026B 26072.58334491 .00104545 00000+0 31154-2 0 9998 2 67722 97.2851 127.0629 0001726 57.3280 103.1098 15.34257070 5940
UTC large
Height (km)
Speed (km/s)
/
Latitude / Longitude
Inclination (degrees)
Orbital Period (minutes)
Azimuth
Elevation
Range (km)
Doppler Factor

Next 0 passes for location: London (51.5072 / 0.1276)

Sorry there are no passes over London.